User: anonymous   Login
Location: Deer Lake
(49.1830°N, 57.4330°W)
Time: 11:18:41
(UTC-02:-30)
Language:

Cosmos 1707 - Orbit

View from above orbital plane
View from above orbital plane
View from above satellite
View from above satellite

Ground track
Ground track

The orbit data is extracted from the following two-line orbital elements,

1 16326U 85113A   14294.94054159  .00008560  00000-0  53822-3 0   424
2 16326 082.5135 078.3620 0011351 056.5213 303.7099 15.09049778570893
Epoch (UTC): 21 October 2014 22:34:22
Eccentricity: 0.0011351
inclination: 82.5135°
perigee height: 531 km
apogee height: 547 km
right ascension of ascending node: 78.3620°
argument of perigee: 56.5213°
revolutions per day: 15.09049778
mean anomaly at epoch: 303.7099°
orbit number at epoch: 57089

The dashed part of the orbit path shows where the satellite is in the earth's shadow,  

DLR